pajilleros.com alexa rank chart, pajilleros.com alexa rank daily changes

pajilleros.com alexa rank chart, pajilleros.com alexa rank daily changes

pajilleros.com
Actual rank:
32 646

RANK HISTORY

Date Rank Diff
2017/10/21 32 646 -402
2017/10/20 33 048 +282
2017/10/19 32 766 +196
2017/10/18 32 570 +83
2017/10/17 32 487 -183
2017/10/16 32 670 -25
2017/10/14 32 695 +19
2017/10/13 32 676 +327
2017/10/12 32 349 +305
2017/10/11 32 044 +496
2017/10/10 31 548 +573
2017/10/09 30 975 -22
2017/10/08 30 997 +297
2017/10/07 30 700 -166
2017/10/06 30 866 +334
2017/10/05 30 532 +367
2017/10/04 30 165 +53
2017/10/03 30 112 -173
2017/10/02 30 285 +160
2017/10/01 30 125 +203
2017/09/30 29 922 +45
2017/09/29 29 877 +330
2017/09/28 29 547 +347
2017/09/27 29 200 +281
2017/09/26 28 919 -190
2017/09/25 29 109 -16
2017/09/24 29 125 +301
2017/09/23 28 824 -354
2017/09/22 29 178 +479
2017/09/20 28 699 -41
2017/09/19 28 740 -365
2017/09/18 29 105 -173
2017/09/17 29 278 +208
2017/09/16 29 070 -35
2017/09/15 29 105 +264
2017/09/14 28 841 -36
2017/09/13 28 877 -291
2017/09/12 29 168 -530
2017/09/11 29 698 -415
2017/09/10 30 113 -544
2017/09/09 30 657 +124
2017/09/08 30 533 -264
2017/09/07 30 797 +353
2017/09/06 30 444 -26
2017/09/05 30 470 -286
2017/09/04 30 756 -233
2017/09/03 30 989 +72
2017/09/02 30 917 +304
2017/09/01 30 613 +160
2017/08/31 30 453 -262
2017/08/30 30 715 +62
2017/08/29 30 653 -379
2017/08/28 31 032 -223
2017/08/27 31 255 +124
2017/08/26 31 131 +248
2017/08/25 30 883 -64
2017/08/24 30 947 +229
2017/08/23 30 718 -97
2017/08/22 30 815

WIDGET FOR YOUR SITE

DOMAINS WITH THE NEAREST RANK

Domain Rank
linear.com 32 641
bet365.com.au 32 642
learnpythonthehardway.org 32 643
freeonlinegames.com 32 644
battlepage.com 32 645
pajilleros.com 32 646
talentsprint.com 32 647
werally.com 32 648
ondvdreleases.com 32 649
victorymine.com 32 650
jpx.co.jp 32 651

DOMAINS WITH THE NEAREST RANK BY TLD .com

Domain Rank
humankinetics.com 32 637
wayup.com 32 638
linear.com 32 641
freeonlinegames.com 32 644
battlepage.com 32 645
pajilleros.com 32 646
talentsprint.com 32 647
werally.com 32 648
ondvdreleases.com 32 649
victorymine.com 32 650
noredink.com 32 652